TimeCDT,TemperatureF,Dew PointF,Humidity,Sea Level PressureIn,VisibilityMPH,Wind Direction,Wind SpeedMPH,Gust SpeedMPH,PrecipitationIn,Events,Conditions,WindDirDegrees,DateUTC
12:53 AM,61.0,53.1,75,30.07,10.0,NE,17.3,-,N/A,,Clear,40,2012-10-08 05:53:00
1:53 AM,60.1,53.1,78,30.08,10.0,NE,16.1,-,N/A,,Clear,40,2012-10-08 06:53:00
2:53 AM,59.0,53.1,81,30.07,10.0,ENE,13.8,-,N/A,,Clear,60,2012-10-08 07:53:00
3:53 AM,60.1,52.0,75,30.06,10.0,NE,10.4,-,N/A,,Clear,40,2012-10-08 08:53:00
4:53 AM,59.0,52.0,78,30.06,10.0,ENE,11.5,-,N/A,,Clear,60,2012-10-08 09:53:00
5:53 AM,57.9,51.1,78,30.08,10.0,North,12.7,-,N/A,,Clear,10,2012-10-08 10:53:00
6:53 AM,57.0,51.1,81,30.11,10.0,North,15.0,-,N/A,,Clear,10,2012-10-08 11:53:00
7:53 AM,57.9,50.0,75,30.13,10.0,NNE,17.3,-,N/A,,Clear,20,2012-10-08 12:53:00
8:53 AM,59.0,48.9,69,30.15,10.0,North,19.6,-,N/A,,Clear,10,2012-10-08 13:53:00
9:53 AM,61.0,50.0,67,30.15,10.0,NNE,16.1,-,N/A,,Clear,20,2012-10-08 14:53:00
10:53 AM,64.0,50.0,60,30.14,10.0,NE,9.2,-,N/A,,Clear,50,2012-10-08 15:53:00
11:53 AM,66.0,50.0,56,30.13,10.0,North,10.4,-,N/A,,Clear,360,2012-10-08 16:53:00
12:53 PM,68.0,51.1,55,30.11,10.0,NNW,9.2,-,N/A,,Clear,340,2012-10-08 17:53:00
1:53 PM,69.1,53.1,57,30.08,10.0,NNW,9.2,-,N/A,,Clear,340,2012-10-08 18:53:00
2:53 PM,71.1,54.0,55,30.06,10.0,NNW,11.5,-,N/A,,Clear,340,2012-10-08 19:53:00
3:53 PM,72.0,54.0,53,30.06,10.0,NNW,10.4,-,N/A,,Clear,340,2012-10-08 20:53:00
4:53 PM,71.1,54.0,55,30.06,10.0,North,9.2,-,N/A,,Clear,360,2012-10-08 21:53:00
5:53 PM,70.0,54.0,57,30.06,10.0,North,10.4,-,N/A,,Clear,360,2012-10-08 22:53:00
6:53 PM,70.0,55.0,59,30.06,10.0,North,11.5,-,N/A,,Clear,10,2012-10-08 23:53:00
7:53 PM,69.1,54.0,58,30.07,10.0,NNE,16.1,-,N/A,,Clear,20,2012-10-09 00:53:00
8:53 PM,68.0,53.6,60,30.11,10.0,NNE,16.1,-,N/A,,Clear,20,2012-10-09 01:53:00
9:53 PM,68.0,54.0,61,30.11,10.0,NNE,17.3,-,N/A,,Clear,30,2012-10-09 02:53:00
10:53 PM,66.9,53.1,61,30.11,10.0,NE,15.0,-,N/A,,Clear,50,2012-10-09 03:53:00
11:53 PM,66.0,54.0,65,30.10,10.0,NE,15.0,-,N/A,,Clear,50,2012-10-09 04:53:00